TimeEEST,TemperatureF,Dew PointF,Humidity,Sea Level PressureIn,VisibilityMPH,Wind Direction,Wind SpeedMPH,Gust SpeedMPH,PrecipitationIn,Events,Conditions,WindDirDegrees,DateUTC
7:50 AM,57.2,51.8,82,30.01,-9999.0,Calm,Calm,-,N/A,,Clear,0,2012-10-07 04:50:00
8:20 AM,57.2,51.8,82,30.01,-9999.0,Calm,Calm,-,N/A,,Clear,0,2012-10-07 05:20:00
8:50 AM,60.8,55.4,82,30.01,-9999.0,Calm,Calm,-,N/A,,Clear,0,2012-10-07 05:50:00
9:20 AM,62.6,55.4,77,30.01,-9999.0,Calm,Calm,-,N/A,,Clear,0,2012-10-07 06:20:00
9:50 AM,68.0,59.0,73,30.01,-9999.0,Calm,Calm,-,N/A,,Clear,0,2012-10-07 06:50:00
10:20 AM,71.6,60.8,69,30.01,-9999.0,Calm,Calm,-,N/A,,Clear,0,2012-10-07 07:20:00
10:50 AM,73.4,60.8,65,30.01,-9999.0,Variable,3.5,-,N/A,,Clear,0,2012-10-07 07:50:00
11:20 AM,75.2,60.8,61,30.01,-9999.0,South,5.8,-,N/A,,Clear,180,2012-10-07 08:20:00
11:50 AM,77.0,59.0,54,30.01,6.2,SSW,6.9,-,N/A,,Partly Cloudy,200,2012-10-07 08:50:00
12:20 PM,77.0,59.0,54,29.98,6.2,SSW,5.8,-,N/A,,Partly Cloudy,210,2012-10-07 09:20:00
12:50 PM,75.2,62.6,65,29.98,6.2,SW,6.9,-,N/A,,Partly Cloudy,230,2012-10-07 09:50:00
1:20 PM,75.2,62.6,65,29.98,6.2,SW,8.1,-,N/A,,Partly Cloudy,220,2012-10-07 10:20:00
1:50 PM,77.0,62.6,61,29.95,6.2,SW,8.1,-,N/A,,Partly Cloudy,220,2012-10-07 10:50:00
2:20 PM,77.0,62.6,61,29.95,6.2,SSW,8.1,-,N/A,,Partly Cloudy,210,2012-10-07 11:20:00
2:50 PM,78.8,62.6,57,29.92,6.2,SSW,8.1,-,N/A,,Partly Cloudy,210,2012-10-07 11:50:00
3:20 PM,78.8,62.6,57,29.92,6.2,SSW,8.1,-,N/A,,Partly Cloudy,200,2012-10-07 12:20:00
3:50 PM,77.0,64.4,65,29.92,6.2,SSW,8.1,-,N/A,,Partly Cloudy,210,2012-10-07 12:50:00
4:20 PM,77.0,64.4,65,29.89,6.2,SW,8.1,-,N/A,,Partly Cloudy,230,2012-10-07 13:20:00
4:50 PM,77.0,64.4,65,29.89,-9999.0,SW,9.2,-,N/A,,Clear,230,2012-10-07 13:50:00
5:20 PM,77.0,64.4,65,29.86,-9999.0,SW,9.2,-,N/A,,Clear,230,2012-10-07 14:20:00
5:50 PM,75.2,66.2,73,29.86,-9999.0,WSW,9.2,-,N/A,,Clear,240,2012-10-07 14:50:00
6:20 PM,75.2,66.2,73,29.86,-9999.0,SW,8.1,-,N/A,,Clear,230,2012-10-07 15:20:00
6:50 PM,73.4,66.2,78,29.86,-9999.0,WSW,8.1,-,N/A,,Clear,250,2012-10-07 15:50:00
7:20 PM,71.6,66.2,83,29.86,-9999.0,West,6.9,-,N/A,,Clear,260,2012-10-07 16:20:00
7:50 PM,71.6,66.2,83,29.86,-9999.0,WSW,5.8,-,N/A,,Clear,250,2012-10-07 16:50:00
8:20 PM,69.8,66.2,88,29.86,-9999.0,WSW,5.8,-,N/A,,Clear,250,2012-10-07 17:20:00
8:50 PM,71.6,64.4,78,29.86,-9999.0,WSW,8.1,-,N/A,,Clear,250,2012-10-07 17:50:00
9:20 PM,71.6,64.4,78,29.83,-9999.0,West,5.8,-,N/A,,Clear,260,2012-10-07 18:20:00
9:50 PM,68.0,64.4,88,29.86,-9999.0,WNW,5.8,-,N/A,,Clear,300,2012-10-07 18:50:00
10:20 PM,66.2,64.4,94,29.86,-9999.0,Calm,Calm,-,N/A,,Clear,0,2012-10-07 19:20:00